Wind_Speed
32 30 29 28 27 27 27 27 26 23 21 19 16 15 17 16 13 12 11 7 8 3 1 2 2 3 4 3 1 3 4 2 2 1 3 3 3 2 3 4 5 4 4 4 3 2 8 11 14 5 12 27 24 26
29 29 29 29 29 30 28 25 23 22 20 17 17 17 16 15 12 9 7 3 1 2 3 4 7 10 11 9 3 1 2 4 1 3 2 2 2 2 6 8 3 5 5 5 5 6 13 26 23 32 30 31 31 24
28 29 29 29 27 25 23 23 23 20 18 18 17 15 13 11 8 5 6 3 2 4 5 1 0 6 2 6 11 6 4 4 3 7 1 3 3 1 2 4 6 6 13 5 9 16 16 24 29 31 30 31 34 34
26 26 25 24 23 23 22 21 19 19 18 15 13 11 8 6 4 3 7 1 2 2 2 5 3 4 3 9 9 10 14 12 11 8 4 2 2 5 3 5 9 10 9 7 14 18 20 28 29 32 35 36 37 31
24 24 24 23 21 21 21 20 19 17 14 12 10 8 5 4 4 4 4 1 2 1 2 9 19 8 7 15 16 15 13 13 12 1 2 3 4 2 5 6 12 7 9 5 12 23 20 24 25 18 27 27 30 32
23 23 22 23 22 20 18 16 15 13 11 8 6 6 6 4 3 5 5 2 1 6 1 2 7 14 9 9 10 9 16 16 14 7 5 5 8 3 2 4 15 15 19 23 23 32 22 29 29 29 25 28 38 36
23 22 21 19 18 17 15 14 11 9 8 8 7 5 3 2 2 3 2 3 3 4 1 4 5 4 5 4 7 10 12 14 14 12 7 8 8 11 3 12 36 30 33 29 22 25 26 25 31 32 30 31 31 29
21 20 19 17 15 13 12 10 10 10 8 6 4 2 1 3 3 2 3 3 3 1 1 0 4 5 4 6 4 7 12 11 6 7 5 4 4 7 4 12 19 18 27 29 20 21 24 28 26 29 31 31 34 36
17 16 14 13 12 12 12 12 11 9 7 5 5 7 7 3 3 2 4 2 4 2 3 2 2 3 6 4 5 5 6 1 7 3 4 4 2 5 10 15 18 19 16 18 24 31 23 27 33 33 33 36 34 35
13 12 11 11 12 13 12 11 10 8 7 7 9 2 3 3 2 2 2 2 2 3 5 3 4 2 6 3 3 6 4 2 2 6 6 4 4 12 12 12 9 14 16 24 24 25 31 30 32 36 35 35 34 35
10 11 12 13 13 12 11 10 10 9 9 6 2 2 3 5 1 1 1 3 5 2 6 5 8 2 3 3 2 5 2 2 2 3 3 2 1 3 7 10 14 16 16 18 19 23 27 31 34 35 35 30 31 26
12 13 14 13 12 11 10 10 9 7 5 3 4 6 4 1 1 2 2 2 3 3 7 4 6 6 6 7 3 3 2 1 4 3 2 2 2 3 7 8 13 14 16 22 25 24 28 31 32 31 29 27 28 19
11 12 12 11 9 8 9 9 8 5 4 4 1 3 2 3 2 3 3 3 2 2 3 3 2 3 3 4 4 1 3 4 2 1 2 1 2 3 5 7 12 14 20 25 25 28 29 31 32 34 31 28 25 21
10 9 10 9 8 8 8 7 8 7 3 1 3 2 3 3 3 4 3 0 1 4 11 15 5 5 5 3 3 3 4 2 3 3 2 2 1 1 5 9 15 19 23 26 25 29 32 30 33 32 33 29 28 23
10 9 9 10 8 7 6 6 9 9 1 1 3 3 4 11 10 14 10 8 9 12 15 11 7 6 3 3 3 3 2 3 3 2 1 2 1 4 8 13 17 20 23 25 26 29 30 31 32 31 31 31 28 24
12 12 12 10 8 8 7 6 10 3 2 3 4 3 9 7 9 7 7 7 12 13 14 7 2 1 3 2 3 5 1 2 0 1 5 5 4 7 11 14 18 20 22 22 27 27 27 28 31 28 30 32 26 25
13 5 7 8 8 7 7 11 9 4 4 3 6 10 14 15 14 18 16 13 9 8 1 2 2 6 2 2 3 2 1 2 1 7 9 7 9 10 13 17 20 21 19 21 27 24 23 27 30 25 29 31 31 23
8 6 6 10 12 11 13 10 4 5 7 11 6 13 14 17 20 21 17 16 11 4 2 3 5 2 3 4 4 2 6 11 10 6 8 11 13 12 12 17 21 18 18 22 23 22 25 25 26 27 26 28 30 28
12 7 11 11 11 8 5 6 7 4 10 11 16 19 19 21 21 21 20 19 19 17 6 4 4 3 4 4 2 12 16 14 13 12 11 12 10 9 14 19 17 17 19 25 23 21 26 22 23 25 24 25 26 27
4 7 10 10 9 4 5 5 6 6 5 7 14 17 18 19 20 19 19 18 15 8 7 4 5 15 18 25 23 19 16 14 15 11 11 10 12 18 14 14 15 16 20 23 24 23 27 25 24 24 23 23 24 25
6 8 11 10 7 6 5 4 6 6 7 6 8 11 9 12 16 17 21 20 15 10 3 20 25 30 27 27 17 14 14 15 15 10 10 16 13 12 14 17 18 20 21 22 20 24 25 23 23 24 27 24 25 25
8 8 10 12 5 4 7 9 6 4 4 8 10 13 9 9 14 16 19 13 10 22 27 28 28 23 20 20 23 19 15 15 13 10 10 11 13 18 20 19 18 21 22 22 21 19 20 22 24 28 26 26 28 27
6 9 7 7 7 5 6 5 4 3 2 3 3 3 4 4 5 4 4 5 9 18 20 18 19 20 18 12 11 8 6 6 8 12 17 19 21 23 22 18 18 19 20 17 17 21 23 21 19 22 27 31 31 28
8 6 4 4 7 4 4 3 4 4 5 3 2 4 3 6 10 6 3 4 6 4 7 8 6 6 7 7 12 15 24 28 27 27 24 19 19 18 17 17 18 17 19 21 19 20 20 22 27 32 34 33 29 25
5 7 6 6 7 4 4 3 4 3 4 5 4 4 3 4 2 3 6 4 10 10 10 11 15 20 19 26 31 32 27 21 21 16 12 13 15 17 19 19 20 18 16 16 19 26 31 33 35 36 32 28 26 26
7 11 11 8 6 5 5 4 5 6 3 3 5 4 3 1 4 5 2 5 5 5 8 16 22 23 23 19 18 13 11 13 15 20 20 17 16 14 15 14 15 17 20 25 30 32 33 33 30 28 29 28 27 27
6 7 10 13 6 7 4 7 7 2 3 4 3 1 2 4 3 2 8 2 3 7 12 12 11 13 14 13 14 17 16 13 12 10 9 12 9 10 13 15 17 22 24 24 24 24 25 28 30 30 30 31 30 29
10 8 6 12 8 11 3 2 3 4 4 3 1 3 3 3 0 2 4 7 11 12 10 11 13 12 12 10 8 7 7 8 8 11 15 16 18 20 21 24 27 28 30 32 32 31 28 28 30 31 30 31 33 31
7 8 10 3 3 5 6 6 5 8 8 6 2 2 3 2 9 16 19 18 15 15 11 10 10 9 6 6 6 8 8 12 17 18 19 24 31 33 31 30 29 30 35 43 42 37 31 27 28 29 29 29 29 30
8 15 7 7 6 6 9 14 8 8 9 11 9 10 18 18 19 19 18 15 11 7 5 5 5 5 7 8 9 11 12 16 16 17 20 27 34 37 34 29 25 32 41 43 40 36 31 31 33 32 30 29 28 28
6 13 7 8 4 16 20 17 16 14 13 11 14 18 19 19 17 15 15 12 5 3 2 3 5 8 10 11 14 19 26 25 18 20 25 33 39 37 37 39 41 39 35 33 36 35 34 32 31 32 33 34 33 31
13 10 5 3 3 5 6 4 7 10 16 16 18 19 19 16 15 10 9 8 4 3 5 6 7 8 11 16 20 22 21 22 28 34 40 37 30 28 29 30 30 32 37 35 31 30 31 34 35 35 35 35 36 35
5 5 3 1 1 2 1 1 3 5 8 13 17 17 14 9 5 9 7 7 9 10 9 9 10 12 14 18 22 25 29 33 35 32 25 22 24 29 30 33 34 32 29 29 31 33 34 33 34 35 36 36 34 31
Wind_Direction
128 130 132 133 133 133 134 135 136 135 134 133 132 133 140 142 128 124 122 121 113 107 325 352 38 19 324 301 125 349 15 299 41 110 152 235 259 280 317 345 336 297 301 284 305 322 280 3 338 334 296 298 299 296
126 128 127 128 130 132 132 133 134 134 135 134 133 135 142 151 140 114 102 118 164 179 224 256 262 253 240 235 319 131 242 320 249 66 17 354 325 316 272 283 306 270 189 272 249 256 282 295 281 283 290 292 290 293
125 126 127 128 128 129 133 134 135 134 133 130 129 133 138 138 140 126 92 73 41 0 318 291 307 1 254 232 245 201 216 230 339 352 137 235 247 15 258 260 282 265 280 269 299 292 285 294 295 292 291 291 294 292
125 126 127 129 130 131 134 136 135 133 131 129 133 135 133 133 131 131 97 314 11 37 31 292 332 248 210 249 229 239 263 271 274 278 188 203 201 244 245 264 279 268 307 272 280 287 295 287 289 293 294 295 297 299
126 128 129 130 131 133 134 132 132 133 133 137 141 138 130 132 137 133 154 310 279 115 293 287 305 328 268 232 240 239 235 255 250 231 169 228 223 255 248 262 263 250 250 254 271 288 288 292 309 318 310 302 296 298
128 128 130 131 132 134 134 134 132 134 140 140 132 128 129 126 104 75 60 49 244 246 265 298 289 298 272 243 243 236 238 236 237 180 219 229 218 241 261 260 270 280 290 289 291 300 312 311 308 308 300 292 298 298
131 133 133 134 136 135 137 137 135 134 132 129 127 132 131 126 127 87 134 112 91 113 340 312 299 305 359 291 251 237 243 243 247 231 218 239 238 249 233 263 274 291 290 299 315 322 321 323 314 316 314 311 307 300
136 137 137 138 143 142 142 141 138 135 129 126 118 122 140 133 141 194 232 155 119 56 266 313 273 294 353 255 222 242 253 253 231 222 232 218 225 215 256 258 278 297 325 316 324 326 308 310 312 312 310 307 305 299
136 139 141 142 139 139 137 137 136 131 124 122 126 116 112 138 199 192 180 182 214 246 294 204 226 275 346 325 284 261 218 227 225 197 213 183 210 222 246 277 317 340 339 331 331 329 330 326 320 319 317 313 305 300
139 143 147 148 145 144 143 141 136 133 140 138 134 119 118 145 130 130 53 164 214 212 227 243 240 261 302 318 291 348 220 223 245 225 182 194 238 249 303 318 353 352 344 335 338 333 328 322 325 321 320 317 315 311
146 150 149 147 149 150 151 151 153 156 144 143 161 137 152 137 130 153 223 197 196 241 216 238 234 263 265 222 238 215 266 229 254 237 156 239 165 248 29 7 344 344 338 335 330 329 332 328 327 324 325 332 336 335
140 143 147 149 154 159 160 160 154 138 143 163 96 118 123 154 246 93 234 246 215 250 168 181 224 219 252 230 237 198 239 183 248 126 213 200 262 92 15 350 338 333 335 330 340 341 342 340 346 339 340 344 348 345
150 152 154 160 163 165 164 163 166 164 141 140 215 175 195 165 24 169 234 258 246 214 230 243 275 245 247 233 247 268 235 233 158 213 209 158 115 55 355 337 331 332 338 348 352 352 346 351 355 356 352 352 347 352
160 159 170 168 165 161 165 182 192 192 192 229 173 287 166 220 240 209 262 178 329 254 284 288 269 204 221 201 222 240 234 303 254 226 105 205 115 72 342 331 335 338 344 349 353 355 355 356 354 357 360 358 352 346
198 194 185 183 182 183 189 193 192 182 238 244 218 238 216 234 270 298 306 312 318 324 323 310 285 206 210 236 210 247 270 249 237 65 206 223 114 337 334 333 330 337 344 347 352 353 353 358 354 355 358 358 357 354
176 176 183 183 193 191 195 193 173 180 260 248 240 241 258 292 284 292 307 314 320 323 321 288 237 318 249 234 223 233 257 274 183 195 5 347 315 305 317 328 330 338 344 346 350 349 345 349 352 351 357 358 357 358
159 164 196 194 192 196 192 184 190 217 241 237 241 247 257 271 275 280 280 284 298 322 249 293 286 231 312 258 252 190 71 276 350 323 306 302 293 304 318 328 334 339 342 342 343 346 348 345 350 350 354 355 357 356
159 218 197 198 192 186 182 188 228 228 237 235 236 251 256 260 270 274 272 277 279 236 237 236 313 260 233 253 280 292 3 332 323 302 303 290 291 305 313 324 330 335 334 332 341 341 337 345 341 346 344 348 348 355
214 237 191 204 201 193 197 216 217 255 240 242 248 256 260 265 268 271 271 272 265 257 250 235 241 225 225 252 316 333 323 318 313 310 307 306 297 316 321 320 329 333 328 333 336 329 335 337 337 337 339 341 344 350
263 143 171 189 201 211 214 228 211 246 257 240 257 270 267 266 273 269 268 266 251 217 215 214 219 246 259 274 292 299 305 301 294 290 298 288 296 319 323 326 328 325 324 329 331 323 331 330 336 339 337 338 340 345
186 172 181 201 216 241 274 245 233 239 263 249 260 287 278 269 259 259 261 261 235 221 223 236 250 261 266 279 286 299 307 306 301 290 285 300 316 316 320 321 317 322 319 319 321 320 321 321 324 326 326 328 329 328
223 204 201 202 233 244 248 235 236 259 259 261 278 271 257 248 256 258 258 235 242 249 251 259 262 267 274 287 291 287 293 294 289 297 305 310 310 315 309 310 310 309 307 309 315 318 318 319 316 314 316 320 323 324
198 187 205 208 218 233 258 236 247 229 250 252 236 237 247 241 241 249 235 237 244 265 272 277 282 283 282 286 294 314 300 323 339 334 330 322 311 315 304 303 299 306 309 306 312 320 321 315 310 317 318 319 319 316
194 192 219 227 219 242 220 231 232 251 244 230 238 243 242 228 261 241 231 249 18 37 73 55 35 22 13 16 14 350 336 332 321 313 308 296 298 298 290 296 302 296 307 319 316 306 306 313 315 316 317 316 314 316
212 210 201 218 216 219 212 211 211 228 236 221 227 264 265 232 232 234 246 113 61 52 42 28 10 354 340 324 324 321 322 301 297 294 305 310 309 304 307 310 315 322 323 316 318 318 315 314 313 314 314 315 315 312
214 203 193 204 198 193 209 214 208 212 217 217 233 251 279 144 236 240 81 107 76 26 352 345 338 330 323 320 313 317 311 311 311 314 312 309 317 329 331 333 328 321 321 322 320 317 313 313 314 314 312 312 311 309
222 209 203 213 222 194 232 256 264 252 229 237 242 307 244 238 247 105 151 43 329 306 313 316 305 299 298 305 303 306 317 324 321 314 314 319 323 321 322 317 322 323 324 327 327 327 321 316 313 310 307 306 305 305
225 221 188 184 203 222 208 208 216 229 232 226 149 203 235 222 57 90 323 295 295 303 315 309 315 317 315 326 322 313 326 326 330 323 314 317 328 330 330 317 313 317 325 330 327 322 314 306 305 305 303 299 297 300
228 211 198 212 210 216 224 207 218 226 210 175 214 230 250 249 307 313 305 298 300 304 304 311 328 335 336 316 310 327 331 331 332 332 325 320 324 326 329 323 319 319 318 323 321 320 316 309 308 307 306 304 302 304
209 205 210 196 175 216 223 229 248 251 234 224 233 262 281 290 292 297 295 283 282 279 304 328 334 323 323 322 317 318 321 330 327 317 314 317 318 321 319 318 310 306 313 316 315 316 316 312 310 308 307 304 302 302
191 190 213 223 240 246 254 263 265 270 270 265 271 266 274 287 289 282 262 267 244 290 304 270 289 297 304 303 309 310 316 327 312 300 301 307 311 307 301 303 306 310 312 314 314 313 313 316 317 316 314 310 308 306
179 185 174 200 251 231 292 277 269 261 268 267 268 271 278 284 276 248 223 203 221 241 269 286 302 290 281 296 307 315 315 303 301 306 312 314 315 319 321 321 320 315 313 315 315 316 319 317 312 309 308 308 305 302
183 181 179 277 222 221 156 293 290 281 259 253 259 265 270 266 218 219 211 213 211 215 233 257 277 291 299 306 308 307 307 309 312 315 321 320 323 325 321 318 317 318 318 318 320 314 310 309 306 304 302 303 305 307
Height
1357 1362 1367 1372 1377 1382 1387 1392 1398 1403 1408 1414 1419 1422 1424 1428 1432 1434 1438 1442 1443 1446 1448 1448 1449 1451 1452 1452 1454 1455 1458 1455 1457 1463 1468 1464 1460 1454 1452 1450 1451 1454 1453 1457 1452 1462 1452 1426 1425 1430 1425 1418 1417 1413
1363 1368 1372 1377 1383 1388 1393 1399 1404 1408 1414 1419 1422 1425 1428 1432 1435 1438 1440 1443 1443 1446 1447 1448 1448 1448 1450 1450 1453 1455 1456 1456 1455 1459 1462 1464 1461 1460 1455 1454 1446 1453 1448 1444 1443 1433 1426 1423 1422 1418 1417 1413 1409 1406
1371 1374 1380 1385 1389 1393 1399 1404 1409 1413 1417 1420 1424 1428 1432 1435 1437 1439 1441 1443 1444 1444 1445 1446 1446 1446 1445 1445 1449 1453 1453 1454 1454 1457 1459 1460 1460 1454 1460 1452 1445 1438 1435 1439 1432 1422 1419 1417 1414 1411 1408 1404 1400 1397
1378 1381 1386 1390 1394 1400 1405 1409 1412 1416 1419 1423 1428 1432 1435 1437 1438 1440 1441 1443 1446 1447 1449 1445 1443 1442 1442 1442 1444 1446 1447 1450 1453 1454 1455 1458 1458 1449 1449 1445 1441 1436 1434 1426 1422 1413 1414 1408 1405 1402 1398 1395 1391 1388
1385 1389 1393 1397 1401 1406 1410 1412 1416 1419 1422 1427 1432 1434 1435 1437 1440 1442 1442 1443 1444 1448 1448 1442 1439 1436 1435 1438 1440 1441 1444 1447 1449 1450 1452 1454 1447 1448 1441 1438 1427 1425 1424 1426 1418 1410 1407 1400 1397 1395 1392 1389 1386 1382
1391 1395 1399 1402 1406 1411 1414 1417 1420 1423 1427 1429 1430 1433 1436 1439 1439 1439 1441 1443 1444 1446 1447 1446 1438 1433 1434 1435 1436 1438 1440 1442 1444 1445 1445 1442 1442 1445 1445 1432 1412 1417 1417 1415 1410 1406 1402 1397 1393 1390 1386 1381 1377 1373
1396 1400 1403 1407 1411 1413 1416 1419 1422 1426 1429 1431 1433 1435 1436 1437 1438 1441 1445 1446 1445 1446 1447 1445 1439 1434 1431 1432 1434 1435 1436 1437 1439 1439 1438 1438 1438 1441 1435 1427 1402 1412 1410 1407 1405 1399 1394 1391 1385 1381 1376 1372 1367 1363
1400 1404 1408 1410 1415 1417 1419 1422 1425 1427 1430 1433 1434 1435 1436 1437 1441 1444 1444 1444 1445 1446 1446 1447 1442 1434 1432 1432 1433 1433 1433 1434 1433 1433 1432 1430 1432 1431 1426 1410 1408 1406 1405 1401 1399 1396 1392 1387 1382 1377 1372 1365 1358 1352
1405 1408 1411 1415 1417 1419 1421 1423 1427 1429 1431 1433 1435 1436 1439 1442 1443 1443 1444 1444 1445 1449 1445 1444 1444 1442 1433 1432 1431 1430 1430 1432 1428 1428 1426 1428 1426 1424 1411 1409 1407 1406 1404 1400 1395 1391 1386 1382 1374 1368 1362 1355 1349 1342
1409 1412 1414 1416 1419 1421 1424 1426 1429 1431 1434 1436 1439 1441 1441 1442 1442 1443 1444 1444 1445 1444 1444 1441 1437 1436 1436 1434 1433 1431 1428 1427 1427 1419 1418 1420 1414 1411 1411 1408 1406 1404 1402 1398 1394 1387 1381 1376 1370 1362 1356 1349 1342 1334
1412 1414 1416 1419 1422 1424 1427 1430 1433 1434 1436 1438 1439 1440 1441 1442 1442 1443 1443 1444 1442 1441 1438 1435 1434 1435 1434 1433 1431 1430 1427 1422 1423 1414 1415 1410 1406 1409 1408 1406 1404 1402 1400 1397 1393 1388 1382 1375 1367 1359 1351 1344 1337 1329
1416 1418 1421 1423 1426 1428 1431 1433 1434 1436 1437 1439 1439 1440 1441 1442 1442 1443 1443 1439 1437 1433 1431 1432 1431 1431 1430 1428 1427 1425 1424 1422 1417 1411 1412 1406 1410 1406 1405 1404 1403 1400 1397 1393 1389 1383 1377 1371 1364 1356 1349 1342 1335 1328
1420 1422 1424 1427 1428 1430 1432 1433 1434 1436 1437 1438 1439 1440 1440 1442 1447 1446 1447 1437 1435 1429 1428 1428 1429 1429 1426 1426 1425 1424 1422 1418 1406 1410 1402 1408 1405 1404 1403 1402 1400 1398 1394 1389 1384 1379 1374 1368 1361 1354 1347 1340 1335 1329
1422 1424 1425 1427 1429 1430 1432 1433 1434 1436 1438 1438 1438 1442 1441 1442 1437 1431 1430 1429 1428 1428 1426 1425 1424 1426 1422 1422 1421 1419 1412 1407 1408 1407 1399 1404 1402 1402 1401 1399 1396 1393 1389 1385 1380 1376 1371 1365 1359 1353 1347 1340 1334 1329
1421 1423 1425 1427 1429 1430 1432 1433 1434 1436 1437 1437 1437 1440 1435 1429 1428 1428 1428 1427 1427 1426 1424 1422 1420 1419 1419 1418 1416 1412 1410 1407 1401 1397 1401 1400 1399 1398 1397 1395 1393 1390 1385 1381 1378 1373 1369 1364 1358 1352 1347 1341 1335 1329
1419 1422 1424 1426 1428 1430 1432 1433 1435 1437 1437 1436 1433 1431 1428 1428 1426 1426 1426 1425 1425 1424 1422 1419 1419 1419 1417 1411 1409 1404 1402 1406 1399 1398 1399 1399 1398 1396 1395 1392 1390 1386 1382 1378 1375 1371 1367 1363 1358 1353 1348 1342 1336 1331
1420 1422 1423 1425 1427 1430 1431 1434 1435 1436 1434 1432 1427 1426 1426 1425 1425 1423 1424 1424 1424 1424 1423 1420 1422 1413 1408 1408 1401 1398 1404 1402 1399 1399 1398 1397 1395 1394 1392 1389 1386 1383 1379 1376 1373 1369 1365 1362 1358 1353 1347 1342 1337 1332
1421 1422 1423 1424 1426 1428 1430 1432 1433 1432 1428 1425 1424 1421 1422 1421 1420 1419 1420 1420 1421 1420 1419 1418 1414 1411 1414 1402 1403 1399 1396 1396 1395 1393 1392 1393 1392 1390 1388 1386 1383 1380 1377 1374 1371 1367 1364 1359 1356 1351 1348 1343 1339 1334
1419 1420 1422 1424 1426 1428 1429 1430 1430 1426 1421 1419 1417 1417 1417 1415 1414 1414 1414 1415 1415 1416 1416 1413 1412 1407 1401 1395 1394 1393 1393 1393 1392 1390 1389 1388 1387 1385 1384 1382 1380 1377 1375 1372 1368 1365 1362 1359 1355 1351 1347 1343 1338 1335
1421 1421 1423 1425 1427 1428 1427 1426 1425 1422 1416 1413 1412 1411 1410 1408 1408 1408 1408 1409 1409 1409 1407 1404 1400 1393 1392 1391 1392 1390 1388 1387 1386 1385 1384 1383 1382 1380 1379 1377 1375 1373 1371 1368 1366 1363 1359 1355 1353 1349 1345 1342 1337 1333
1422 1422 1424 1425 1426 1427 1424 1421 1419 1416 1412 1409 1407 1406 1404 1402 1401 1400 1400 1401 1401 1398 1395 1390 1388 1387 1388 1388 1386 1385 1383 1383 1383 1381 1379 1377 1376 1375 1374 1372 1371 1369 1366 1362 1359 1357 1356 1353 1349 1345 1342 1339 1335 1332
1419 1421 1422 1424 1424 1423 1419 1416 1414 1411 1410 1406 1404 1403 1400 1396 1394 1392 1391 1391 1389 1386 1385 1383 1381 1382 1382 1381 1380 1378 1378 1377 1376 1377 1376 1374 1372 1371 1369 1366 1365 1363 1361 1359 1355 1352 1350 1348 1345 1341 1337 1334 1331 1327
1417 1419 1420 1421 1421 1418 1413 1411 1411 1408 1407 1402 1400 1398 1395 1391 1387 1387 1386 1382 1380 1378 1378 1378 1376 1376 1375 1375 1375 1374 1373 1373 1372 1372 1371 1369 1368 1367 1364 1361 1360 1357 1354 1352 1349 1347 1345 1342 1339 1335 1332 1329 1325 1321
1416 1417 1416 1415 1413 1410 1409 1408 1407 1405 1401 1399 1397 1394 1389 1385 1383 1382 1381 1378 1379 1376 1375 1375 1375 1375 1375 1374 1374 1372 1371 1370 1369 1366 1364 1362 1359 1358 1356 1355 1353 1352 1350 1346 1343 1340 1338 1335 1333 1330 1326 1323 1319 1316
1414 1412 1412 1408 1406 1406 1405 1402 1400 1398 1396 1392 1391 1388 1382 1379 1380 1377 1373 1374 1377 1376 1376 1376 1375 1376 1376 1374 1371 1368 1367 1365 1362 1360 1359 1356 1354 1352 1350 1349 1348 1347 1343 1339 1336 1333 1331 1328 1325 1322 1319 1316 1313 1311
1404 1399 1399 1397 1396 1398 1396 1395 1393 1391 1388 1387 1383 1379 1377 1377 1377 1373 1371 1374 1375 1375 1375 1374 1373 1371 1370 1369 1366 1363 1361 1359 1358 1356 1354 1353 1351 1349 1347 1345 1343 1341 1338 1336 1332 1328 1324 1321 1317 1315 1312 1309 1307 1305
1392 1388 1386 1387 1386 1387 1387 1385 1384 1384 1384 1383 1378 1376 1375 1372 1370 1371 1372 1372 1373 1373 1372 1370 1369 1367 1365 1363 1362 1360 1358 1356 1355 1353 1351 1350 1349 1347 1345 1342 1339 1337 1334 1330 1327 1323 1319 1315 1312 1309 1306 1303 1300 1298
1380 1377 1379 1379 1381 1381 1382 1381 1381 1380 1375 1372 1373 1373 1372 1369 1368 1370 1370 1369 1369 1368 1366 1364 1363 1362 1360 1359 1358 1356 1355 1354 1353 1351 1349 1347 1345 1343 1341 1338 1334 1331 1327 1323 1320 1316 1313 1309 1305 1301 1298 1295 1291 1289
1371 1371 1373 1374 1375 1375 1374 1373 1371 1368 1368 1369 1370 1368 1366 1365 1365 1365 1365 1364 1363 1362 1361 1360 1359 1358 1357 1357 1355 1355 1353 1351 1349 1346 1343 1340 1336 1334 1333 1329 1325 1321 1318 1314 1310 1308 1304 1301 1297 1293 1290 1286 1283 1279
1364 1366 1368 1367 1370 1369 1365 1366 1364 1363 1364 1364 1365 1363 1362 1361 1360 1359 1359 1358 1358 1357 1357 1356 1356 1355 1355 1354 1353 1351 1350 1349 1347 1345 1340 1336 1332 1328 1324 1321 1318 1314 1310 1306 1301 1296 1293 1291 1287 1283 1280 1277 1274 1271
1356 1358 1360 1361 1360 1359 1360 1360 1360 1359 1359 1359 1358 1357 1355 1356 1354 1353 1352 1353 1353 1353 1353 1353 1353 1352 1351 1350 1349 1347 1343 1343 1341 1338 1335 1331 1326 1322 1317 1313 1309 1305 1301 1297 1293 1289 1285 1281 1278 1274 1270 1267 1265 1262
1351 1352 1354 1356 1355 1357 1357 1357 1356 1354 1353 1353 1352 1351 1350 1350 1350 1348 1348 1349 1349 1349 1349 1350 1349 1349 1348 1347 1346 1344 1340 1337 1334 1330 1326 1321 1316 1312 1309 1305 1301 1297 1293 1289 1285 1281 1277 1274 1270 1266 1262 1258 1254 1251
1348 1350 1351 1353 1353 1353 1354 1355 1354 1350 1348 1346 1345 1345 1346 1346 1346 1345 1345 1345 1346 1345 1346 1346 1346 1345 1344 1342 1340 1337 1334 1330 1326 1322 1318 1314 1310 1306 1302 1298 1294 1289 1284 1280 1277 1274 1270 1265 1261 1257 1253 1249 1244 1240